Location: *
(51.1248°S, 108.4023°W)
Time: 21:39:48
(UTC+00:00)

Cosmos 2278 Rocket - Pass Details

Date: 27 October 2021
Orbit: 841 x 845 km, 71.0° (Epoch: 30 November)

Event Time Altitude Azimuth Distance (km) Brightness Sun altitude
Exits shadow 05:48:18 53° 62° (ENE) 1,046 2.3 -24.3°
Maximum altitude 05:48:27 53° 68° (ENE) 1,044 2.4 -24.3°
Drops below altitude 10° 05:54:01 10° 143° (SE) 2,497 5.1 -24.5°
Sets 05:56:31 0° 147° (SSE) 3,439 5.9 -24.6°
